When you browse on this site, cookies collect data to enhance your experience and personalize the content and advertising you see.
Visit our Privacy Policy to learn more. By continuing to use the site, you agree to this use of cookies and data.
  • în România
  • Lista ţărilor
  • Pe 7 zile
  • Temperatura apei
  • Meteo pe hartă
  • Widget-uri
  • user-avatar
    Intrare

    Meteo pe oră la Pontypool

    Astăzi, 26 Februarie, Miercuri

    Timp Temperatura Precipitaţii Vânt Presiune Umiditate
    00:00 -2°C° 0 mm 7 m/s 734 mmHg 81%
    01:00 -2°C° 0 mm 7 m/s 734 mmHg 82%
    02:00 -2°C° 0 mm 7 m/s 734 mmHg 84%
    03:00 -2°C° 0 mm 7 m/s 735 mmHg 85%
    04:00 -2°C° 0 mm 7 m/s 735 mmHg 83%
    05:00 -2°C° 0 mm 8 m/s 736 mmHg 81%
    06:00 -1°C° 0 mm 7 m/s 736 mmHg 87%
    07:00 -1°C° 0 mm 8 m/s 737 mmHg 83%
    08:00 0°C° 0 mm 8 m/s 738 mmHg 80%
    09:00 0°C° 0 mm 9 m/s 739 mmHg 77%
    10:00 +1°C° 0 mm 9 m/s 739 mmHg 73%
    11:00 +2°C° 0 mm 9 m/s 740 mmHg 69%
    12:00 +3°C° 0 mm 9 m/s 740 mmHg 65%
    13:00 +4°C° 0 mm 8 m/s 741 mmHg 64%
    14:00 +4°C° 0 mm 7 m/s 741 mmHg 64%
    15:00 +3°C° 0 mm 7 m/s 741 mmHg 63%
    16:00 +2°C° 0 mm 6 m/s 741 mmHg 67%
    17:00 +1°C° 0 mm 5 m/s 741 mmHg 72%
    18:00 0°C° 0 mm 4 m/s 741 mmHg 77%
    19:00 +1°C° 0 mm 3 m/s 740 mmHg 79%
    20:00 +1°C° 0 mm 3 m/s 740 mmHg 80%
    21:00 +1°C° 0 mm 3 m/s 740 mmHg 82%
    22:00 +1°C° 0 mm 3 m/s 739 mmHg 84%
    23:00 0°C° 0 mm 4 m/s 738 mmHg 85%

    Mâine, 27 Februarie, Joi

    Timp Temperatura Precipitaţii Vânt Presiune Umiditate
    00:00 +1°C° 0 mm 4 m/s 738 mmHg 87%
    01:00 0°C° 0.5 mm 4 m/s 736 mmHg 90%
    02:00 +1°C° 0.5 mm 3 m/s 734 mmHg 94%
    03:00 +1°C° 0.5 mm 3 m/s 732 mmHg 97%
    04:00 +1°C° 1.9 mm 3 m/s 731 mmHg 98%
    05:00 0°C° 1.9 mm 4 m/s 730 mmHg 98%
    06:00 0°C° 1.9 mm 4 m/s 729 mmHg 98%
    07:00 0°C° 0.7 mm 5 m/s 730 mmHg 98%
    08:00 0°C° 0.7 mm 5 m/s 730 mmHg 97%
    09:00 -1°C° 0.7 mm 6 m/s 731 mmHg 96%
    10:00 +1°C° 0 mm 6 m/s 732 mmHg 92%
    11:00 0°C° 0 mm 7 m/s 734 mmHg 88%
    12:00 +1°C° 0 mm 8 m/s 736 mmHg 83%
    13:00 +1°C° 0 mm 8 m/s 736 mmHg 81%
    14:00 +1°C° 0 mm 8 m/s 737 mmHg 78%
    15:00 +1°C° 0 mm 8 m/s 738 mmHg 75%
    16:00 0°C° 0 mm 7 m/s 739 mmHg 78%
    17:00 0°C° 0 mm 5 m/s 740 mmHg 80%
    18:00 -1°C° 0 mm 4 m/s 741 mmHg 82%
    19:00 0°C° 0 mm 3 m/s 742 mmHg 83%
    20:00 0°C° 0 mm 3 m/s 742 mmHg 84%
    21:00 -1°C° 0 mm 2 m/s 743 mmHg 85%
    22:00 -1°C° 0 mm 2 m/s 743 mmHg 84%
    23:00 +1°C° 0 mm 2 m/s 743 mmHg 82%

    Poimâine, 28 Februarie, Vineri

    Timp Temperatura Precipitaţii Vânt Presiune Umiditate
    00:00 +2°C° 0 mm 1 m/s 744 mmHg 81%
    01:00 +1°C° 0 mm 2 m/s 743 mmHg 82%
    02:00 +1°C° 0 mm 2 m/s 743 mmHg 83%
    03:00 +1°C° 0 mm 3 m/s 743 mmHg 85%
    04:00 +1°C° 0.1 mm 3 m/s 742 mmHg 86%
    05:00 0°C° 0.1 mm 4 m/s 741 mmHg 87%
    06:00 0°C° 0.1 mm 4 m/s 741 mmHg 88%
    07:00 0°C° 1 mm 5 m/s 740 mmHg 91%
    08:00 -1°C° 1 mm 6 m/s 739 mmHg 94%
    09:00 -1°C° 1 mm 7 m/s 738 mmHg 97%
    10:00 +1°C° 2.5 mm 6 m/s 737 mmHg 97%
    11:00 +2°C° 2.5 mm 5 m/s 736 mmHg 98%
    12:00 +4°C° 2.5 mm 4 m/s 735 mmHg 98%
    13:00 +5°C° 2.2 mm 5 m/s 734 mmHg 97%
    14:00 +5°C° 2.2 mm 6 m/s 733 mmHg 97%
    15:00 +8°C° 2.2 mm 7 m/s 732 mmHg 97%
    16:00 +8°C° 0.3 mm 7 m/s 732 mmHg 96%
    17:00 +8°C° 0.3 mm 7 m/s 731 mmHg 95%
    18:00 +8°C° 0.3 mm 7 m/s 731 mmHg 94%
    19:00 +7°C° 1.7 mm 8 m/s 730 mmHg 94%
    20:00 +7°C° 1.7 mm 8 m/s 729 mmHg 94%
    21:00 +7°C° 1.7 mm 9 m/s 729 mmHg 94%
    22:00 +7°C° 1.3 mm 9 m/s 728 mmHg 94%
    23:00 +7°C° 1.3 mm 10 m/s 727 mmHg 93%

    29 Februarie, Sâmbătă

    Timp Temperatura Precipitaţii Vânt Presiune Umiditate
    00:00 +7°C° 1.3 mm 10 m/s 726 mmHg 93%
    01:00 +7°C° 0.9 mm 11 m/s 724 mmHg 92%
    02:00 +7°C° 0.9 mm 11 m/s 723 mmHg 91%
    03:00 +7°C° 0.9 mm 11 m/s 721 mmHg 91%
    04:00 +7°C° 1.2 mm 11 m/s 720 mmHg 91%
    05:00 +6°C° 1.2 mm 10 m/s 719 mmHg 91%
    06:00 +6°C° 1.2 mm 10 m/s 718 mmHg 91%
    07:00 +5°C° 0.5 mm 10 m/s 718 mmHg 87%
    08:00 +3°C° 0.5 mm 10 m/s 718 mmHg 82%
    09:00 +2°C° 0.5 mm 10 m/s 718 mmHg 78%
    10:00 +2°C° 0.2 mm 12 m/s 717 mmHg 78%
    11:00 +1°C° 0.2 mm 15 m/s 716 mmHg 78%
    12:00 +1°C° 0.2 mm 17 m/s 716 mmHg 78%
    13:00 +1°C° 1.8 mm 18 m/s 715 mmHg 82%
    14:00 -1°C° 1.8 mm 19 m/s 715 mmHg 86%
    15:00 -1°C° 1.8 mm 20 m/s 714 mmHg 90%
    16:00 -1°C° 1.2 mm 19 m/s 716 mmHg 88%
    17:00 -1°C° 1.2 mm 18 m/s 717 mmHg 86%
    18:00 -2°C° 1.2 mm 17 m/s 718 mmHg 84%
    19:00 -2°C° 0.3 mm 16 m/s 720 mmHg 80%
    20:00 -1°C° 0.3 mm 15 m/s 721 mmHg 77%
    21:00 -1°C° 0.3 mm 14 m/s 722 mmHg 73%
    22:00 -2°C° 0 mm 13 m/s 723 mmHg 72%
    23:00 -2°C° 0 mm 12 m/s 724 mmHg 71%

    1 Martie, Duminică

    Timp Temperatura Precipitaţii Vânt Presiune Umiditate
    00:00 -2°C° 0 mm 11 m/s 725 mmHg 71%
    01:00 -3°C° 0 mm 10 m/s 725 mmHg 71%
    02:00 -3°C° 0 mm 9 m/s 726 mmHg 71%
    03:00 -2°C° 0 mm 8 m/s 726 mmHg 72%
    04:00 -2°C° 0 mm 8 m/s 727 mmHg 73%
    05:00 -2°C° 0 mm 7 m/s 727 mmHg 74%
    06:00 -2°C° 0 mm 7 m/s 727 mmHg 74%
    07:00 -1°C° 0 mm 7 m/s 728 mmHg 73%
    08:00 -1°C° 0 mm 7 m/s 728 mmHg 72%
    09:00 0°C° 0 mm 8 m/s 728 mmHg 71%
    10:00 +1°C° 0.1 mm 8 m/s 729 mmHg 70%
    11:00 +1°C° 0.1 mm 9 m/s 729 mmHg 69%
    12:00 +2°C° 0.1 mm 9 m/s 729 mmHg 68%
    13:00 +2°C° 0.1 mm 9 m/s 729 mmHg 70%
    14:00 +2°C° 0.1 mm 9 m/s 729 mmHg 72%
    15:00 +3°C° 0.1 mm 9 m/s 730 mmHg 74%
    16:00 +3°C° 0 mm 7 m/s 729 mmHg 78%
    17:00 +2°C° 0 mm 6 m/s 729 mmHg 82%
    18:00 +2°C° 0 mm 5 m/s 729 mmHg 85%
    19:00 +2°C° 0.1 mm 6 m/s 729 mmHg 86%
    20:00 +2°C° 0.1 mm 6 m/s 728 mmHg 87%
    21:00 +2°C° 0.1 mm 7 m/s 728 mmHg 88%
    22:00 +3°C° 0.2 mm 6 m/s 728 mmHg 89%
    23:00 +3°C° 0.2 mm 6 m/s 727 mmHg 90%

    2 Martie, Luni

    Timp Temperatura Precipitaţii Vânt Presiune Umiditate
    00:00 +3°C° 0.2 mm 6 m/s 727 mmHg 91%
    01:00 +2°C° 0.2 mm 5 m/s 727 mmHg 91%
    02:00 +2°C° 0.2 mm 5 m/s 727 mmHg 91%
    03:00 +1°C° 0.2 mm 4 m/s 726 mmHg 92%
    04:00 +1°C° 0 mm 4 m/s 727 mmHg 92%
    05:00 +1°C° 0 mm 3 m/s 727 mmHg 92%
    06:00 +1°C° 0 mm 3 m/s 727 mmHg 92%
    07:00 +1°C° 0 mm 4 m/s 728 mmHg 89%
    08:00 +1°C° 0 mm 4 m/s 728 mmHg 86%
    09:00 +2°C° 0 mm 5 m/s 729 mmHg 83%
    10:00 +3°C° 0 mm 5 m/s 730 mmHg 78%
    11:00 +3°C° 0 mm 5 m/s 731 mmHg 73%
    12:00 +4°C° 0 mm 6 m/s 731 mmHg 68%
    13:00 +4°C° 0.1 mm 6 m/s 732 mmHg 67%
    14:00 +4°C° 0.1 mm 6 m/s 732 mmHg 65%
    15:00 +4°C° 0.1 mm 6 m/s 733 mmHg 64%
    16:00 +3°C° 0 mm 6 m/s 733 mmHg 69%
    17:00 +1°C° 0 mm 5 m/s 734 mmHg 73%
    18:00 0°C° 0 mm 4 m/s 734 mmHg 78%
    19:00 +1°C° 0 mm 3 m/s 735 mmHg 81%
    20:00 0°C° 0 mm 3 m/s 736 mmHg 83%
    21:00 0°C° 0 mm 3 m/s 737 mmHg 86%
    22:00 0°C° 0 mm 3 m/s 737 mmHg 87%
    23:00 +1°C° 0 mm 2 m/s 738 mmHg 88%
    Arată mai mult